Weather History for Fremont, NE

Change the Weather History Date:

Sunday, December 7, 2014

  Actual Average Record
Temperature  
Mean Temperature 36 °F -  
Max Temperature 39 °F 37 °F 67 °F (1984)
Min Temperature 32 °F 19 °F -7 °F (1976)
Degree Days  
Heating Degree Days 30    
Moisture  
Dew Point 35 °F    
Average Humidity 98    
Maximum Humidity 100    
Minimum Humidity 95    
Precipitation  
Precipitation 0.00 in - - ()
Sea Level Pressure  
Sea Level Pressure 30.28 in    
Wind  
Wind Speed 10 mph (South)    
Max Wind Speed 15 mph    
Max Gust Speed 21 mph    
Visibility 2 miles    
Events      
Averages and records for this station are not official NWS values.
T = Trace of Precipitation, MM = Missing Value Source: NWS Daily Summary

Daily Weather History Graph

Daily Weather History Graph

Search for Another Location

Airport:

Trip Planner

Search our weather history database for the weather conditions in past years. The results will help you decide how hot, cold, wet, or windy it might be!

Date:

Astronomy

Dec. 07, 2014 Rise Set
Actual Time 7:38 AM CST 4:56 PM CST
Civil Twilight 7:07 AM CST 5:27 PM CST
Nautical Twilight 6:33 AM CST 6:02 PM CST
Astronomical Twilight 5:59 AM CST 6:35 PM CST
Moon 6:26 PM CST (12/7) 8:22 AM CST (12/7)
Length of Visible Light 10h 19m
Length of Day
9h 17m
Full, 98% of the Moon is Illuminated
Dec 7
Full
Dec 14
Last Quarter
Dec 21
New
Dec 28
First Quarter
Jan 4
Full

Hourly Weather History & Observations

Time (CST) Temp. Windchill Dew Point Humidity Pressure Visibility Wind Dir Wind Speed Gust Speed Precip Events Conditions
12:15 AM 32.4 °F 26.9 °F 31.1 °F 95% 30.48 in 3.0 mi SSE 5.8 mph - N/A   Overcast
12:35 AM 32.7 °F 24.5 °F 31.6 °F 96% 30.47 in 3.0 mi South 10.4 mph - N/A   Overcast
12:55 AM 32.7 °F 23.9 °F 31.8 °F 96% 30.46 in 4.0 mi SSE 11.5 mph - N/A   Overcast
1:15 AM 32.5 °F 24.2 °F 32.0 °F 98% 30.45 in 3.0 mi SSE 10.4 mph - N/A   Overcast
1:35 AM 32.5 °F 23.2 °F 32.0 °F 98% 30.45 in 2.5 mi SSE 12.7 mph 16.1 mph N/A   Overcast
1:55 AM 32.4 °F 24.0 °F 32.0 °F 99% 30.45 in 2.0 mi SSE 10.4 mph - N/A   Overcast
2:15 AM 32.5 °F 23.2 °F 32.0 °F 98% 30.44 in 1.8 mi SSE 12.7 mph 17.3 mph N/A   Overcast
2:35 AM 32.7 °F 24.5 °F 32.2 °F 98% 30.43 in 2.5 mi SSE 10.4 mph 19.6 mph N/A   Overcast
2:55 AM 32.9 °F 24.7 °F 32.4 °F 98% 30.43 in 1.8 mi SSE 10.4 mph 16.1 mph N/A   Overcast
3:15 AM 32.9 °F 24.1 °F 32.4 °F 98% 30.43 in 1.5 mi SSE 11.5 mph - N/A   Overcast
3:35 AM 32.9 °F 26.7 °F 32.4 °F 98% 30.43 in 2.0 mi South 6.9 mph - N/A   Overcast
3:55 AM 32.9 °F 24.1 °F 32.4 °F 98% 30.41 in 5.0 mi SSE 11.5 mph 17.3 mph N/A   Overcast
4:15 AM 32.9 °F 23.2 °F 32.4 °F 98% 30.40 in 3.0 mi SSE 13.8 mph 18.4 mph N/A   Overcast
4:35 AM 32.9 °F 25.3 °F 32.4 °F 98% 30.40 in 2.5 mi South 9.2 mph - N/A   Overcast
4:55 AM 32.9 °F 23.7 °F 32.4 °F 98% 30.38 in 4.0 mi SSE 12.7 mph 18.4 mph N/A   Overcast
5:15 AM 32.9 °F 24.1 °F 32.4 °F 98% 30.36 in 3.0 mi SSE 11.5 mph 17.3 mph N/A   Overcast
5:35 AM 32.9 °F 25.3 °F 32.5 °F 99% 30.35 in 2.0 mi SSE 9.2 mph - N/A   Overcast
5:55 AM 32.9 °F 25.9 °F 32.5 °F 99% 30.36 in 5.0 mi SSE 8.1 mph - N/A   Overcast
6:15 AM 32.9 °F 24.7 °F 32.5 °F 99% 30.36 in 2.0 mi South 10.4 mph - N/A   Overcast
6:35 AM 33.1 °F 24.4 °F 32.7 °F 99% 30.36 in 4.0 mi South 11.5 mph - N/A   Overcast
6:55 AM 33.1 °F 24.9 °F 32.9 °F 99% 30.36 in 2.5 mi SSE 10.4 mph - N/A   Overcast
7:15 AM 33.1 °F 24.4 °F 32.9 °F 99% 30.35 in 3.0 mi SSE 11.5 mph - N/A   Overcast
7:35 AM 33.1 °F 25.5 °F 32.9 °F 99% 30.35 in 1.8 mi SSE 9.2 mph - N/A   Overcast
7:55 AM 33.1 °F 23.0 °F 32.9 °F 99% 30.33 in 2.0 mi SSE 15.0 mph - N/A   Overcast
8:15 AM 33.1 °F 24.9 °F 32.9 °F 99% 30.33 in 1.0 mi SSE 10.4 mph - N/A   Overcast
8:35 AM 33.3 °F 25.1 °F 33.1 °F 99% 30.32 in 0.8 mi SSE 10.4 mph - N/A   Overcast
8:55 AM 33.4 °F 24.3 °F 33.3 °F 99% 30.31 in 0.8 mi SE 12.7 mph 19.6 mph N/A   Overcast
9:15 AM 33.8 °F 24.8 °F 33.4 °F 99% 30.30 in 0.8 mi SSE 12.7 mph 17.3 mph N/A   Overcast
9:35 AM 33.8 °F 27.0 °F 33.8 °F 100% 30.32 in 0.8 mi SSE 8.1 mph - N/A   Overcast
9:55 AM 34.0 °F 24.6 °F 33.8 °F 99% 30.31 in 0.8 mi SSE 13.8 mph 17.3 mph N/A   Overcast
10:15 AM 34.2 °F 25.7 °F 34.0 °F 99% 30.31 in 1.0 mi SSE 11.5 mph - N/A   Overcast
10:35 AM 34.7 °F 25.9 °F 34.3 °F 99% 30.31 in 1.5 mi SSE 12.7 mph 17.3 mph N/A   Overcast
10:55 AM 34.7 °F 25.5 °F 34.7 °F 100% 30.31 in 2.5 mi SSE 13.8 mph - N/A   Overcast
11:15 AM 35.2 °F 27.1 °F 34.9 °F 99% 30.30 in 5.0 mi South 11.5 mph - N/A   Overcast
11:35 AM 35.2 °F 26.2 °F 34.7 °F 98% 30.28 in 5.0 mi SSE 13.8 mph - N/A   Overcast
11:55 AM 35.6 °F 26.2 °F 34.7 °F 97% 30.27 in 5.0 mi SSE 15.0 mph - N/A   Overcast
12:15 PM 36.0 °F 27.1 °F 34.9 °F 96% 30.26 in 5.0 mi SSE 13.8 mph 20.7 mph N/A   Overcast
12:35 PM 36.0 °F 28.0 °F 34.9 °F 96% 30.25 in 5.0 mi SSE 11.5 mph 17.3 mph N/A   Overcast
12:55 PM 36.5 °F 28.2 °F 35.2 °F 95% 30.23 in 4.0 mi SSE 12.7 mph 17.3 mph N/A   Overcast
1:15 PM 36.5 °F 29.2 °F 35.2 °F 95% 30.22 in 2.5 mi SSE 10.4 mph - N/A   Overcast
1:35 PM 36.5 °F 28.2 °F 35.6 °F 97% 30.21 in 2.0 mi South 12.7 mph - N/A   Overcast
1:55 PM 36.9 °F 29.1 °F 36.0 °F 97% 30.20 in 2.0 mi South 11.5 mph 16.1 mph N/A   Overcast
2:15 PM 37.4 °F 30.8 °F 36.5 °F 97% 30.19 in 2.0 mi South 9.2 mph - N/A   Overcast
2:35 PM 37.4 °F 30.3 °F 36.7 °F 97% 30.19 in 2.0 mi South 10.4 mph - N/A   Overcast
2:55 PM 37.8 °F 30.2 °F 37.0 °F 97% 30.18 in 2.0 mi South 11.5 mph 17.3 mph N/A   Overcast
3:15 PM 37.9 °F 31.5 °F 37.0 °F 97% 30.19 in 2.0 mi South 9.2 mph - N/A   Overcast
3:35 PM 37.9 °F 33.5 °F 37.4 °F 98% 30.20 in 1.8 mi South 5.8 mph - N/A   Overcast
3:55 PM 38.3 °F 33.2 °F 37.4 °F 97% 30.19 in 1.5 mi South 6.9 mph - N/A   Overcast
4:15 PM 38.3 °F 33.2 °F 37.8 °F 98% 30.19 in 1.5 mi South 6.9 mph - N/A   Overcast
4:35 PM 38.3 °F 32.5 °F 37.8 °F 98% 30.19 in 1.5 mi South 8.1 mph - N/A   Overcast
4:55 PM 38.3 °F 33.9 °F 37.8 °F 98% 30.18 in 1.8 mi South 5.8 mph - N/A   Overcast
5:15 PM 38.5 °F 34.1 °F 37.9 °F 98% 30.18 in 2.5 mi South 5.8 mph - N/A   Overcast
5:35 PM 38.5 °F 32.7 °F 37.9 °F 98% 30.17 in 2.5 mi South 8.1 mph - N/A   Overcast
5:55 PM 38.5 °F 33.4 °F 37.9 °F 98% 30.17 in 2.5 mi South 6.9 mph - N/A   Overcast
6:15 PM 38.5 °F 32.7 °F 38.3 °F 99% 30.17 in 2.5 mi South 8.1 mph - N/A   Overcast
6:35 PM 38.7 °F 32.9 °F 38.3 °F 99% 30.17 in 2.5 mi South 8.1 mph - N/A   Overcast
6:55 PM 38.7 °F 33.6 °F 38.3 °F 99% 30.17 in 2.5 mi South 6.9 mph - N/A   Overcast
7:15 PM 38.7 °F 34.3 °F 38.3 °F 99% 30.17 in 2.5 mi South 5.8 mph - N/A   Overcast
7:35 PM 38.8 °F 33.2 °F 38.5 °F 99% 30.17 in 3.0 mi South 8.1 mph - N/A   Overcast
7:55 PM 38.8 °F 33.2 °F 38.5 °F 99% 30.17 in 3.0 mi South 8.1 mph - N/A   Overcast
8:15 PM 39.0 °F 34.8 °F 38.5 °F 98% 30.17 in 3.0 mi South 5.8 mph - N/A   Overcast
8:35 PM 39.2 °F 34.2 °F 38.5 °F 97% 30.16 in 3.0 mi South 6.9 mph - N/A   Overcast
8:55 PM 39.2 °F 33.6 °F 38.7 °F 98% 30.16 in 4.0 mi South 8.1 mph - N/A   Overcast
9:15 PM 39.2 °F 33.6 °F 38.7 °F 98% 30.16 in 4.0 mi South 8.1 mph - N/A   Overcast
9:35 PM 39.2 °F 33.6 °F 38.7 °F 98% 30.16 in 4.0 mi South 8.1 mph - N/A   Overcast
9:55 PM 39.2 °F 33.6 °F 38.8 °F 99% 30.15 in 2.5 mi SSW 8.1 mph - N/A   Overcast
10:15 PM 39.2 °F 35.0 °F 38.8 °F 99% 30.14 in 2.0 mi South 5.8 mph - N/A   Overcast
10:35 PM 39.2 °F 35.0 °F 38.8 °F 99% 30.15 in 1.8 mi SSW 5.8 mph - N/A   Overcast
10:55 PM 39.2 °F 34.2 °F 38.7 °F 98% 30.15 in 1.2 mi SSW 6.9 mph - N/A   Overcast
11:15 PM 38.8 °F 34.6 °F 38.5 °F 99% 30.16 in 1.8 mi SW 5.8 mph - N/A   Overcast
11:35 PM 38.7 °F 32.9 °F 38.5 °F 99% 30.15 in 1.0 mi SSW 8.1 mph - N/A   Overcast
11:55 PM 38.3 °F 33.9 °F 38.1 °F 99% 30.14 in 1.2 mi SW 5.8 mph - N/A   Overcast